Weather History for Casper, WY

Change the Weather History Date:

Wednesday, November 27, 2013

  Actual Average Record
Temperature  
Mean Temperature 35 °F 28 °F  
Max Temperature 50 °F 38 °F 64 °F (1998)
Min Temperature 19 °F 17 °F -11 °F (1952)
Degree Days  
Heating Degree Days 30 37  
Month to date heating degree days 873 843  
Since 1 July heating degree days 1762 1742  
Cooling Degree Days 0 0  
Month to date cooling degree days 0 0  
Year to date cooling degree days 618 422  
Moisture  
Dew Point 21 °F    
Average Humidity 61    
Maximum Humidity 88    
Minimum Humidity 34    
Precipitation  
Precipitation 0.00 in 0.02 in 0.30 in (1942)
Month to date precipitation 0.24 0.70  
Year to date precipitation 13.94 11.97  
Snow  
Snow 0.00 in 0.40 in - ()
Month to date snowfall 3.6 9.3  
Since 1 July snowfall 24.8 18.5  
Since 1 September snowfall 24.8 18.5  
Snow Depth 0.00 in    
Sea Level Pressure  
Sea Level Pressure 30.12 in    
Wind  
Wind Speed 17 mph (SW)    
Max Wind Speed 33 mph    
Max Gust Speed 43 mph    
Visibility 10 miles    
Events      
T = Trace of Precipitation, MM = Missing Value Source: NWS Daily Summary

Daily Weather History Graph

Daily Weather History Graph

Search for Another Location

Airport:

Trip Planner

Search our weather history database for the weather conditions in past years. The results will help you decide how hot, cold, wet, or windy it might be!

Date:

Astronomy

Nov. 27, 2013 Rise Set
Actual Time 7:12 AM MST 4:34 PM MST
Civil Twilight 6:41 AM MST 5:05 PM MST
Nautical Twilight 6:06 AM MST 5:40 PM MST
Astronomical Twilight 5:32 AM MST 6:14 PM MST
Moon 1:09 AM MST 1:20 PM MST
Length of Visible Light 10h 23m
Length of Day
9h 21m
Waning Crescent, 31% of the Moon is Illuminated
Nov 27
Waning Crescent
Dec 2
New
Dec 9
First Quarter
Dec 17
Full
Dec 25
Last Quarter

Hourly Weather History & Observations

Time (MST) Temp. Windchill Dew Point Humidity Pressure Visibility Wind Dir Wind Speed Gust Speed Precip Events Conditions
12:53 AM 35.1 °F 25.5 °F 21.0 °F 57% 30.17 in 10.0 mi SW 15.0 mph - N/A   Clear
1:53 AM 35.1 °F 23.8 °F 21.0 °F 57% 30.14 in 10.0 mi SW 20.7 mph 29.9 mph N/A   Clear
2:53 AM 35.1 °F 23.0 °F 21.0 °F 57% 30.13 in 10.0 mi SSW 24.2 mph 29.9 mph N/A   Clear
3:53 AM 36.0 °F 25.6 °F 21.0 °F 55% 30.13 in 10.0 mi SW 18.4 mph - N/A   Clear
4:53 AM 35.1 °F 23.0 °F 21.0 °F 57% 30.14 in 10.0 mi SSW 24.2 mph 29.9 mph N/A   Clear
5:53 AM 35.1 °F 21.8 °F 21.0 °F 57% 30.12 in 10.0 mi SSW 29.9 mph 36.8 mph N/A   Clear
6:53 AM 35.1 °F 22.7 °F 19.9 °F 54% 30.13 in 10.0 mi SSW 25.3 mph 31.1 mph N/A   Clear
7:53 AM 36.0 °F 23.9 °F 21.0 °F 55% 30.12 in 10.0 mi SSW 25.3 mph 35.7 mph N/A   Clear
8:53 AM 37.9 °F 27.6 °F 21.0 °F 51% 30.13 in 10.0 mi SW 20.7 mph 32.2 mph N/A   Clear
9:53 AM 41.0 °F 29.8 °F 21.0 °F 45% 30.11 in 10.0 mi SSW 29.9 mph 35.7 mph N/A   Clear
10:53 AM 45.0 °F 35.6 °F 21.9 °F 40% 30.06 in 10.0 mi SW 27.6 mph 38.0 mph N/A   Clear
11:53 AM 48.0 °F - 23.0 °F 37% 30.03 in 10.0 mi SW 24.2 mph 38.0 mph N/A   Clear
12:53 PM 48.9 °F - 21.9 °F 35% 30.03 in 10.0 mi SW 25.3 mph 36.8 mph N/A   Clear
1:53 PM 48.9 °F - 21.9 °F 35% 30.03 in 10.0 mi SSW 19.6 mph 32.2 mph N/A   Clear
2:53 PM 48.0 °F - 23.0 °F 37% 30.04 in 10.0 mi SSW 17.3 mph 24.2 mph N/A   Clear
3:53 PM 45.0 °F 39.7 °F 23.0 °F 42% 30.05 in 10.0 mi SSW 10.4 mph 18.4 mph N/A   Clear
4:53 PM 37.9 °F 31.5 °F 23.0 °F 55% 30.09 in 10.0 mi WSW 9.2 mph - N/A   Clear
5:53 PM 36.0 °F 28.5 °F 23.0 °F 59% 30.12 in 10.0 mi West 10.4 mph - N/A   Clear
6:53 PM 34.0 °F 28.0 °F 23.0 °F 64% 30.14 in 10.0 mi NW 6.9 mph - N/A   Clear
7:53 PM 28.0 °F 21.7 °F 21.9 °F 78% 30.18 in 10.0 mi North 5.8 mph - N/A   Clear
8:53 PM 27.0 °F 18.7 °F 21.0 °F 78% 30.18 in 10.0 mi NW 8.1 mph - N/A   Clear
9:53 PM 25.0 °F 19.3 °F 19.9 °F 81% 30.19 in 10.0 mi NE 4.6 mph - N/A   Clear
10:53 PM 23.0 °F 17.0 °F 19.0 °F 85% 30.19 in 10.0 mi NW 4.6 mph - N/A   Clear
11:53 PM 19.9 °F - 17.1 °F 89% 30.19 in 10.0 mi Calm Calm - N/A   Clear